Content
SEND FEEDBACK

Daily
Averages
Monthly
Summary
United States of America

ATHENS, WISCONSIN


Home > North America > United States > Wisconsin
Elevation: 1420 feet     Latitude: 45 09N     Longitude: 090 05W

WEATHER
 
SELECT A DAY
Number of Records: 417,471;   Date Range: 8/5/97 - 9/16/14
 
SHARE

PRINT THIS DATA

[ ← Previous Day ]
WEATHER ALMANAC - JANUARY 23, 2013
[ Next Day → ]
[ °C ]   °F
Weather ElementAverageHighLow
Temperature1.5 °F12.2 °F (1:55 pm)-11.2 °F (12:35 am)
Dewpoint-5.5 °F6.8 °F (2:35 pm)-16.6 °F (12:35 am)
Humidity72.6 %85 % (2:35 pm)61 % (5:55 pm)
Barometer30.13 in30.40 in (11:55 pm)29.97 in (1:35 pm)
Wind Speed8.9 mph19.6 mph (5:35 pm)
Wind Gust28.8 mph (3:35 pm)
Weather ElementAverage
Visibility7.9 mi
Wind DirectionWSW (263.8 °)

Weather ElementTotal
Precipitation---
Heating Degree Days64.5 (Base 65)
Averaged from 71 records on January 23, 2013
WEATHER CONDITIONS BREAKOUT
WIND DIRECTION BREAKOUT
WEATHER BY HOUR - JANUARY 23, 2013
[ °C ]   °F
Local TimeTemperatureDewpointHumidityBarometerVisibilityWind DirectionWind SpeedGust SpeedPrecipitationEventsConditions
12:35 AM-11.2 °F-16.6 °F77 %30.13 in10.0 miCalmClear
12:55 AM-9.4 °F-16.6 °F71 %30.13 in10.0 miCalmClear
1:15 AM-9.4 °F-14.8 °F77 %30.13 in10.0 miCalmClear
1:35 AM-9.4 °F-14.8 °F77 %30.13 in10.0 miCalmClear
1:55 AM-9.4 °F-14.8 °F77 %30.12 in10.0 miSW (220°)3.5 mphScattered Clouds
2:15 AM-7.6 °F-11.2 °F84 %30.12 in10.0 miSW (230°)4.6 mphMostly Cloudy
2:35 AM-5.8 °F-11.2 °F77 %30.12 in10.0 miSW (230°)4.6 mphOvercast
2:55 AM-4.0 °F-9.4 °F78 %30.12 in10.0 miSW (230°)4.6 mphOvercast
3:15 AM-2.2 °F-9.4 °F71 %30.11 in10.0 miWSW (250°)6.9 mphOvercast
3:35 AM-2.2 °F-7.6 °F78 %30.10 in10.0 miWSW (250°)5.8 mphOvercast
3:55 AM-2.2 °F-7.6 °F78 %30.10 in10.0 miWSW (250°)5.8 mphOvercast
4:15 AM-2.2 °F-7.6 °F78 %30.09 in10.0 miWSW (240°)6.9 mphOvercast
4:35 AM-0.4 °F-7.6 °F72 %30.09 in10.0 miWSW (250°)6.9 mphOvercast
4:55 AM-0.4 °F-7.6 °F72 %30.09 in10.0 miWest (260°)5.8 mphOvercast
5:15 AM-0.4 °F-7.6 °F72 %30.07 in10.0 miWSW (250°)6.9 mphOvercast
5:35 AM-0.4 °F-5.8 °F78 %30.07 in10.0 miWest (260°)5.8 mphOvercast
5:55 AM-0.4 °F-5.8 °F78 %30.07 in10.0 miWest (260°)4.6 mphOvercast
6:15 AM-0.4 °F-5.8 °F78 %30.07 in10.0 miWest (280°)4.6 mphOvercast
6:35 AM-0.4 °F-5.8 °F78 %30.07 in10.0 miWest (260°)4.6 mphOvercast
6:55 AM-0.4 °F-5.8 °F78 %30.07 in10.0 miCalmOvercast
7:15 AM-0.4 °F-5.8 °F78 %30.07 in10.0 miCalmOvercast
7:35 AM1.4 °F-5.8 °F72 %30.06 in10.0 miWSW (240°)3.5 mphOvercast
7:55 AM1.4 °F-5.8 °F72 %30.06 in10.0 miWSW (240°)3.5 mphOvercast
8:15 AM1.4 °F-4.0 °F78 %30.05 in10.0 miSW (230°)5.8 mphOvercast
8:35 AM1.4 °F-4.0 °F78 %30.05 in10.0 miSW (230°)4.6 mphOvercast
8:55 AM3.2 °F-4.0 °F72 %30.05 in10.0 miWSW (240°)5.8 mphOvercast
9:15 AM3.2 °F-4.0 °F72 %30.05 in7.0 miWSW (240°)8.1 mphOvercast
9:35 AM3.2 °F-2.2 °F78 %30.05 in4.0 miWSW (240°)5.8 mphHaze
9:55 AM3.2 °F-2.2 °F78 %30.05 in5.0 miWest (260°)5.8 mphHaze
10:15 AM5.0 °F-2.2 °F72 %30.05 in3.0 miWest (260°)4.6 mphSnowLight Snow
10:35 AM5.0 °F-0.4 °F78 %30.04 in2.5 miWSW (250°)6.9 mphSnowLight Snow
10:55 AM6.8 °F-0.4 °F72 %30.04 in4.0 miWSW (250°)5.8 mphSnowLight Snow
11:15 AM6.8 °F-0.4 °F72 %30.03 in10.0 miWSW (250°)4.6 mphOvercast
11:35 AM8.6 °F1.4 °F73 %30.02 in10.0 miWest (280°)5.8 mphOvercast
11:55 AM8.6 °F1.4 °F73 %30.01 in10.0 miWest (280°)5.8 mphOvercast
12:15 PM10.4 °F1.4 °F67 %30.00 in4.0 miWest (270°)9.2 mphHaze
12:35 PM10.4 °F1.4 °F67 %29.99 in7.0 miWSW (250°)10.4 mphOvercast
12:55 PM10.4 °F3.2 °F73 %29.98 in2.0 miWest (260°)10.4 mphHaze
1:15 PM10.4 °F5.0 °F79 %29.98 in2.0 miWest (260°)9.2 mphHaze
1:35 PM10.4 °F3.2 °F73 %29.97 in5.0 miWest (280°)9.2 mphHaze
1:55 PM12.2 °F3.2 °F67 %29.97 in7.0 miWNW (290°)12.7 mph20.7 mphOvercast
2:15 PM10.4 °F5.0 °F79 %29.98 in1.2 miWNW (290°)12.7 mphSnowLight Snow
2:35 PM10.4 °F6.8 °F85 %29.99 in1.0 miWNW (290°)13.8 mphSnowLight Snow
2:55 PM10.4 °F3.2 °F73 %30.01 in3.0 miWNW (300°)17.3 mph25.3 mphHaze
3:15 PM10.4 °F5.0 °F79 %30.02 in0.8 miNW (310°)12.7 mph21.9 mphSnowLight Snow
3:35 PM10.4 °F-0.4 °F62 %30.04 in4.0 miWNW (300°)18.4 mph28.8 mphHaze
3:55 PM8.6 °F-0.4 °F67 %30.06 in2.0 miNW (320°)15.0 mph25.3 mphSnowLight Snow
4:15 PM8.6 °F1.4 °F73 %30.07 in1.0 miNNW (330°)16.1 mph25.3 mphSnowLight Snow
4:35 PM8.6 °F-0.4 °F67 %30.09 in5.0 miNNW (340°)13.8 mph20.7 mphHaze
4:55 PM6.8 °F-2.2 °F67 %30.11 in5.0 miNNW (340°)16.1 mph24.2 mphHaze
5:15 PM6.8 °F-2.2 °F67 %30.13 in10.0 miNNW (330°)17.3 mph23.0 mphOvercast
5:35 PM5.0 °F-2.2 °F72 %30.15 in1.8 miNorth (350°)19.6 mph26.5 mphSnowLight Snow
5:55 PM3.2 °F-7.6 °F61 %30.18 in7.0 miNorth (350°)17.3 mph27.6 mphScattered Clouds
6:15 PM1.4 °F-7.6 °F66 %30.20 in10.0 miNNW (340°)16.1 mph19.6 mphClear
6:35 PM1.4 °F-9.4 °F61 %30.21 in10.0 miNNW (340°)11.5 mph21.9 mphClear
6:55 PM1.4 °F-9.4 °F61 %30.24 in10.0 miNNW (330°)12.7 mph19.6 mphClear
7:15 PM-0.4 °F-9.4 °F66 %30.25 in10.0 miNNW (340°)16.1 mph27.6 mphClear
7:35 PM-0.4 °F-9.4 °F66 %30.27 in10.0 miNNW (340°)15.0 mph20.7 mphClear
7:55 PM-0.4 °F-9.4 °F66 %30.27 in10.0 miNNW (330°)19.6 mph26.5 mphClear
8:15 PM-2.2 °F-9.4 °F71 %30.29 in10.0 miNNW (330°)17.3 mph21.9 mphClear
8:35 PM-2.2 °F-9.4 °F71 %30.30 in10.0 miNNW (330°)11.5 mph17.3 mphClear
8:55 PM-2.2 °F-11.2 °F66 %30.31 in10.0 miNNW (330°)11.5 mph19.6 mphClear
9:15 PM-2.2 °F-11.2 °F66 %30.32 in10.0 miNNW (340°)11.5 mph18.4 mphClear
9:35 PM-2.2 °F-11.2 °F66 %30.33 in10.0 miNNW (340°)13.8 mph18.4 mphClear
9:55 PM-4.0 °F-11.2 °F71 %30.34 in10.0 miNNW (340°)10.4 mphClear
10:15 PM-4.0 °F-11.2 °F71 %30.35 in10.0 miNorth (350°)8.1 mphClear
10:35 PM-4.0 °F-11.2 °F71 %30.36 in10.0 miNNW (330°)9.2 mph17.3 mphClear
10:55 PM-4.0 °F-11.2 °F71 %30.37 in10.0 miNorth (350°)10.4 mphClear
11:15 PM-4.0 °F-11.2 °F71 %30.38 in10.0 miNNW (340°)9.2 mphClear
11:35 PM-4.0 °F-11.2 °F71 %30.39 in10.0 miNNW (330°)8.1 mphClear
11:55 PM-5.8 °F-11.2 °F77 %30.40 in10.0 miNNW (330°)8.1 mphClear
Hourly data recorded from KMDZ, located miles away from Athens, Wisconsin







STORIES FROM OUR PARTNERS